Location: Arthez
(43.0833°N, 0.2500°W)
Time: 21:15:06
(UTC+00:00)

IRAS Rocket - Pass Details

Date: 23 October 2021
Orbit: 847 x 878 km, 100.1° (Epoch: 06 December)

Event Time Altitude Azimuth Distance (km) Brightness Sun altitude
Rises 18:12:21 0° 20° (NNE) 3,452 7.1 -12.9°
Reaches altitude 10° 18:14:50 10° 26° (NNE) 2,506 6.4 -13.3°
Maximum altitude 18:20:12 50° 101° (ESE) 1,087 4.4 -14.3°
Drops below altitude 10° 18:25:30 10° 176° (S) 2,471 6.6 -15.3°
Sets 18:27:56 0° 182° (S) 3,399 7.4 -15.7°
